Regional Weather Roundup
Issued by NWS Newport/Morehead, NC

Current Version | Previous Version | Graphics & Text | Print | Product List | Glossary On
Versions: 1 2 3 4 5 6 7 8 9 10 11 12 13 14 15 16 17 18 19 20 21 22 23 24 25 26 27 28 29 30 31 32 33 34 35 36 37 38 39 40 41 42 43 44 45 46 47 48 49 50
000 ASUS42 KMHX 282012 RWRMHX WEATHER ROUNDUP FOR EASTERN NORTH CAROLINA NATIONAL WEATHER SERVICE NEWPORT/MOREHEAD CITY NC 300 PM EST SAT FEB 28 2015 NOTE: "FAIR" INDICATES FEW OR NO CLOUDS BELOW 12,000 FEET WITH NO SIGNIFICANT WEATHER AND/OR OBSTRUCTIONS TO VISIBILITY NCZ015>017-031-032-045>047-102-103-282100- NORTH COAST CITY SKY/WX TMP DP RH WIND PRES REMARKS EDENTON SUNNY 39 20 46 E9 30.74F ELIZABETH CITY SUNNY 34 17 50 NE15 30.76S KITTY HAWK PTCLDY 34 22 60 N7G21 30.73R MANTEO MOSUNNY 34 21 60 N21 30.74R $$ NCZ045>047-081-094-103-104-282100- CENTRAL COAST CITY SKY/WX TMP DP RH WIND PRES REMARKS FRISCO CLOUDY 37 28 70 NE13G26 30.68F SWANQUARTER N/A 37 N/A N/A NE15G22 30.68S $$ NCZ095-097-098-100-101-282100- SOUTHERN COAST CITY SKY/WX TMP DP RH WIND PRES REMARKS BEAUFORT MOSUNNY 41 28 60 NE17G26 30.67S CEDAR ISLAND N/A 39 N/A N/A N17 30.74R JACKSONVILLE SUNNY 46 22 38 N16 30.66F PINEY ISLAND N/A N/A N/A N/A MISG 30.69R WILMINGTON SUNNY 50 25 37 N14 30.63S $$ NCZ011>013-027>030-043-044-078>080-089-090>093-098-282100- COASTAL PLAIN CITY SKY/WX TMP DP RH WIND PRES REMARKS AHOSKIE SUNNY 36 11 36 N5 30.75F CLINTON PTSUNNY 42 23 45 NE6G20 30.69F ELIZABETHTOWN PTSUNNY 44 23 43 NE7 30.66F GOLDSBORO CLOUDY 39 21 48 NE8 30.68F GREENVILLE MOSUNNY 39 19 45 NE9 30.71F HAVELOCK MOSUNNY 44 22 41 NE15 30.69R KENANSVILLE MOSUNNY 41 23 47 N13G18 30.69F KINSTON MOSUNNY 41 21 45 NE10 30.71F NEW BERN MOSUNNY 43 19 38 NE14 30.71S RICHLANDS MOSUNNY 43 19 39 N13G21 30.68S ROCKY MOUNT CLOUDY 39 16 39 NE9 30.72F WASHINGTON MOSUNNY 39 20 47 NE13 30.73S WHITEVILLE MOSUNNY 47 23 39 N8 30.63S $$ AMZ130-135-150-152-154-156-158-170-250-252-270-ANZ085-086-088-633-658-670-282100- MARINE OBSERVATIONS STATION/POSITION TIME TEMP WIND PRES WAVE SWELL AIR SEA DIR/SP/G HT/PER HT/PER (UTC) (F) (DEG/KT/KT) (MB) (FT/S) (FT/S) CHESAPEAKE LIGHT 1900 28 20/ 16/ 17 1042.3 64 E VA BEACH 1950 39 61 360/ 16/ 21 1039.8 5/11 3/11 DUCK 1900 30 35 10/ 15/ 19 1040.3 2 E DUCK 1911 34 N/A 5/ 6 2/11 10 NE DUCK 1922 37 N/A 6/ 6 2/11 OREGON INLET 1900 34 38 360/ 18/ 22 1040.1 HATTERAS CG 1900 34 39 20/ 23/ 28 1039.0 CAPE LOOKOUT 2000 40 30/ 21/ 26 1037.8 BEAUFORT LAB 1900 41 40 30/ 15/ 22 1037.4 27 SE WRIGHTSVLE NOT AVBL 5 SE WRIGHTSVLE NOT AVBL 225 S CAPE HAT 1950 65 69 60/ 19/ 23 1031.7 9/ 9 5/ 9 41 SE CHARLESTON 1950 52 66 40/ 29/ 35 1032.1 10/ 8 3/15 $$

USA.gov is the U.S. government's official web portal to all federal, state and local government web resources and services.